Free Trial

Nuveen Quality Municipal Income Fund (NAD) Institutional Ownership

Nuveen Quality Municipal Income Fund logo
$11.76 +0.19 (+1.61%)
Closing price 03:59 PM Eastern
Extended Trading
$11.76 +0.00 (+0.03%)
As of 04:10 PM Eastern
Extended trading is trading that happens on electronic markets outside of regular trading hours. This is a fair market value extended hours price provided by Massive. Learn more.

Institutional Ownership Changes (13F Filings) for Nuveen Quality Municipal Income Fund (NYSE:NAD)

Number of
Institutional Buyers
(last 12 months)
169
Total
Institutional Inflows
(last 12 months)
$99.67M
Number of
Institutional Sellers
(last 12 months)
111
Total
Institutional Outflows
(last 12 months)
$119.02M
Get NAD Insider Trade Alerts

Want to know when executives and insiders are buying or selling Nuveen Quality Municipal Income Fund stock? Sign up for InsiderTrades.com's daily newsletter to get the latest insider transactions delivered to your inbox daily.

SMS is currently available in Australia, Belgium, Canada, France, Germany, Ireland, Italy, New Zealand, the Netherlands, Singapore, South Africa, Spain, Switzerland, the United Kingdom, and the United States. By entering your phone number and clicking the sign-up button, you agree to receive periodic text messages from MarketBeat at the phone number you submitted, including texts that may be sent using an automatic telephone dialing system. Message and data rates may apply. Message frequency will vary. Messages will consist of stock alerts, news stories, and partner advertisements/offers. Consent is not a condition of the purchase of any goods or services. Text HELP for help/customer support. Unsubscribe at any time by replying "STOP" to any text message that you receive from MarketBeat or by visiting our mailing preferences page. Read our full terms of service and privacy policy.
Skip Chart & View Institutional Buying and Selling Data

NAD Institutional Buying and Selling by Quarter

Nuveen Quality Municipal Income Fund Major Shareholders & Ownership History

Reporting DateMajor Shareholder NameShares HeldMarket Value% of PortfolioQuarterly Change in SharesOwnership in CompanyDetails
5/5/2026Bank of New York Mellon Corp43,275$498K0.0%+23.6%0.000%
5/5/2026Sanctuary Advisors LLC159,227$1.83M0.0%-1.2%0.000%
5/5/2026 Cornerstone Advisory LLC847,426$9.75M0.9%-3.5%0.000%
5/4/2026 Chicago Partners Investment Group LLC27,473$323K0.0%-3.2%0.000%
5/1/2026 Fifth Third Bancorp49,434$568K0.0%+416.9%0.000%
4/30/2026 Ibex Wealth Advisors127,683$1.47M0.1%-3.5%0.000%
4/30/2026 Kestra Advisory Services LLC186,831$2.15M0.0%+4.4%0.000%
4/28/2026 Indiana Trust & Investment Management Co29,000$334K0.1%-77.4%0.000%
4/27/2026 Altus Wealth Group LLC15,832$182K0.1%+54.7%0.000%
4/27/2026 PFG Investments LLC37,694$433K0.0%-5.1%0.000%
4/27/2026 World Investment Advisors22,614$260K0.0%-20.1%0.000%
4/27/2026 Canal Capital Management LLC12,195$140K0.0%N/A0.000%
4/27/2026 Private Advisor Group LLC41,162$473K0.0%-2.3%0.000%
4/25/2026 Eagle Bluffs Wealth Management LLC741,692$8.58M3.3%+7.6%0.000%
4/24/2026 Wealth Care LLC50,000$575K0.5%N/A0.000%
4/24/2026 Key Financial Inc12,536$144K0.0%N/A0.000%
4/23/2026 Folger Nolan Fleming Douglas Capital Management Inc.18,638$214K0.0%N/A0.000%
4/22/2026 Patriot Financial Group Insurance Agency LLC10,000$115K0.0%N/A0.000%
4/21/2026 Maridea Wealth Management LLC14,593$168K0.0%+20.5%0.000%
4/21/2026 Silver Oak Securities Incorporated9,881$114K0.0%+12.3%0.000%
4/20/2026 Breakwater Capital Group123,172$1.42M0.2%+7.9%0.000%
4/17/2026 XML Financial LLC133,148$1.53M0.1%-3.6%0.000%
4/17/2026 Everstar Asset Management LLC100,170$1.15M0.6%N/A0.000%
3/17/2026Rockefeller Capital Management L.P.184,786$2.22M0.0%-4.7%0.000%
3/13/2026 World Investment Advisors28,310$340K0.0%+164.7%0.000%
3/9/2026Corient Private Wealth LLC39,398$474K0.0%-8.2%0.000%
3/5/2026 Worthington Financial Partners LLC44,544$535K0.5%N/A0.000%
2/25/2026Sit Investment Associates Inc.245,102$2.95M0.1%-64.2%0.000%
2/23/2026Virtu Financial LLC144,507$1.74M0.1%N/A0.000%
2/19/2026Invesco Ltd.218,823$2.63M0.0%+3.2%0.000%
2/19/2026Corient Private Wealth LLC50,638$609K0.0%+18.0%0.000%
2/18/2026Widmann Financial Services Inc.17,224$207K0.1%-5.4%0.000%
2/18/2026Mercer Global Advisors Inc. ADV16,270$196K0.0%+55.0%0.000%
2/18/2026NewEdge Advisors LLC371,835$4.47M0.0%+88.6%0.000%
2/18/2026XTX Topco Ltd46,476$559K0.0%N/A0.000%
2/18/2026 Evolve Private Wealth LLC29,146$350K0.0%N/A0.000%
2/18/2026Align Financial LLC2,933$35K0.0%N/A0.000%
2/17/2026Guggenheim Capital LLC2,572,898$30.93M0.2%+45.9%0.000%
2/17/2026Cetera Investment Advisers647,154$7.78M0.0%+7.4%0.000%
2/17/2026Colter Lewis Investment Partners LLC104,326$1.25M1.5%N/A0.000%
2/17/2026GeoWealth Management LLC36,814$443K0.0%-26.9%0.000%
2/17/2026Osaic Holdings Inc.328,551$3.95M0.0%-5.1%0.000%
2/17/2026Advisory Services Network LLC63,087$758K0.0%-25.6%0.000%
2/17/2026 Ibex Wealth Advisors132,288$1.59M0.2%-3.3%0.000%
2/17/2026&PARTNERS94,581$1.14M0.0%+183.2%0.000%
2/17/2026Royal Bank of Canada899,907$10.82M0.0%+4.6%0.000%
2/17/2026Beacon Investment Advisors LLC10,309$124K0.0%-23.4%0.000%
2/16/2026Mariner LLC37,994$457K0.0%-15.4%0.000%
2/16/2026 Eagle Bluffs Wealth Management LLC689,347$8.29M3.4%+7.9%0.000%
2/16/2026Arkos Global Advisors23,168$278K0.0%-13.5%0.000%
2/13/2026 Kestra Advisory Services LLC178,889$2.15M0.0%-5.4%0.000%
2/13/2026 Altus Wealth Group LLC10,232$123K0.0%N/A0.000%
2/13/2026 Kennicott Capital Management LLC10,418$125K0.1%-30.5%0.000%
2/13/2026Stifel Financial Corp694,762$8.35M0.0%+18.0%0.000%
2/13/2026PCM Encore LLC13,434$161K0.0%N/A0.000%
2/13/2026Morgan Stanley7,179,292$86.30M0.0%+0.7%0.000%
2/13/2026Focused Alpha LLC50,666$609K0.2%N/A0.000%
2/13/2026Van ECK Associates Corp1,176,168$14.14M0.0%-2.5%0.000%
2/13/2026Wells Fargo & Company MN2,444,540$29.38M0.0%-1.9%0.000%
2/13/2026Summit Financial LLC89,193$1.07M0.0%+9.0%0.000%
2/13/2026Concorde Asset Management LLC62,096$746K0.3%+9.1%0.000%
2/12/2026Advisors Asset Management Inc.511,349$6.15M0.1%-15.7%0.000%
2/12/2026 Advocate Investing Services LLC3,372$41K0.0%N/A0.000%
2/12/2026Jane Street Group LLC257,220$3.09M0.0%+139.4%0.000%
2/12/2026Insigneo Advisory Services LLC13,959$168K0.0%+6.8%0.000%
2/12/2026 Commonwealth Equity Services LLC445,132$5.35M0.0%+2.4%0.000%
2/12/2026Carson Advisory Inc.10,115$122K0.1%-13.0%0.000%
2/12/2026Marex Group plc11,790$142K0.0%-56.9%0.000%
2/12/2026Great Lakes Retirement Inc.17,904$215K0.0%N/A0.000%
2/12/2026Steward Partners Investment Advisory LLC195,511$2.35M0.0%+0.7%0.000%
2/11/2026 Janney Montgomery Scott LLC339,680$4.08M0.0%+2.6%0.000%
2/11/2026 GFS Advisors LLC483,570$5.81M0.7%-6.1%0.000%
2/11/2026Capital Analysts LLC3,455$42K0.0%N/A0.000%
2/11/2026Horizon Kinetics Asset Management LLC161,977$1.95M0.0%-0.5%0.000%
2/11/2026Cerity Partners LLC218,671$2.63M0.0%+10.6%0.000%
2/11/2026LPL Financial LLC953,333$11.46M0.0%+15.3%0.000%
2/11/2026 XML Financial LLC138,086$1.66M0.1%-2.2%0.000%
2/11/2026Closed End Fund Advisors Inc.14,125$170K0.1%N/A0.000%
2/11/2026Crescent Grove Advisors LLC31,735$381K0.0%-21.2%0.000%
2/10/2026Private Wealth Asset Management LLC18,805$226K0.0%N/A0.000%
2/10/2026 Gill Capital Partners LLC198,572$2.39M0.7%-63.4%0.000%
2/10/2026Northwestern Mutual Wealth Management Co.78,771$947K0.0%+1.6%0.000%
2/10/2026 Savant Capital LLC183,334$2.20M0.0%-1.4%0.000%
2/10/2026Moors & Cabot Inc.27,367$329K0.0%+27.5%0.000%
2/9/2026 Cary Street Partners Financial LLC17,998$216K0.0%+33.8%0.000%
2/9/2026MSH Capital Advisors LLC66,947$805K0.2%+10.0%0.000%
2/9/2026Kuhn & Co Investment Counsel99,904$1.20M0.8%+42.9%0.000%
2/9/2026 Prospera Financial Services Inc125,391$1.51M0.0%+2.5%0.000%
2/6/2026Kingdom Financial Group LLC.3,657$44K0.0%N/A0.000%
2/6/2026Global Retirement Partners LLC37,859$455K0.0%+1,783.5%0.000%
2/6/2026 IFP Advisors Inc50,032$601K0.0%-23.8%0.000%
2/6/2026HighTower Advisors LLC464,400$5.58M0.0%-3.0%0.000%
2/5/2026Wakefield Asset Management LLLP159,821$1.92M0.5%+0.7%0.000%
2/5/2026Northwestern Mutual Wealth Management Co.155,822$1.87M0.0%+101.1%0.000%
2/5/2026Allworth Financial LP18,424$221K0.0%+17.2%0.000%
2/4/2026 World Investment Advisors28,310$340K0.0%+164.7%0.000%
2/3/2026 Koshinski Asset Management Inc.63,042$758K0.0%+338.3%0.000%
2/3/2026 International Assets Investment Management LLC15,466$186K0.0%N/A0.000%
2/3/2026 Indivisible Partners113,152$1.36M0.1%N/A0.000%
2/3/2026 RFG Advisory LLC49,776$598K0.0%-12.6%0.000%


NAD Institutional Ownership - Frequently Asked Questions

Who are the largest shareholders of NAD shares?

During the previous two years, 311 institutional investors and hedge funds held shares of Nuveen Quality Municipal Income Fund. The most heavily invested institutionals were Rivernorth Capital Management LLC ($105.10M), Morgan Stanley ($86.30M), Bramshill Investments LLC ($49.41M), UBS Group AG ($42.59M), Bank of America Corp DE ($32.18M), Guggenheim Capital LLC ($30.93M), and Wells Fargo & Company MN ($29.38M).Learn more on Nuveen Quality Municipal Income Fund's institutional investors.

Which institutional investors have been buying Nuveen Quality Municipal Income Fund's stock?

Of the 264 institutional investors that purchased Nuveen Quality Municipal Income Fund's stock in the last 24 months, the following investors and hedge funds have bought the highest volume of shares: Raymond James Financial Inc. ($4.29M), Guggenheim Capital LLC ($1.15M), Karpus Management Inc. ($1.01M), Cornerstone Advisory LLC ($688.81K), Allspring Global Investments Holdings LLC ($639.79K), Bramshill Investments LLC ($588.02K), and Bank of America Corp DE ($549.13K).

How much institutional buying is happening at Nuveen Quality Municipal Income Fund?

Institutional investors have bought a total of 8,522,479 shares in the last 24 months. This purchase volume represents approximately $99.67M in transactions.

Which of Nuveen Quality Municipal Income Fund's major shareholders have been selling company stock?

Of the 110 institutional investors that sold Nuveen Quality Municipal Income Fund's stock in the last 24 months, the following investors and hedge funds have sold the highest volume of shares: Karpus Management Inc. ($3.10M), Sit Investment Associates Inc. ($1.22M), Mackay Shields LLC ($1.17M), Gill Capital Partners LLC ($545.68K), Envestnet Asset Management Inc. ($470.37K), Allspring Global Investments Holdings LLC ($379.40K), and Park Avenue Securities LLC ($323.23K).

How much institutional selling is happening at Nuveen Quality Municipal Income Fund?

Institutional investors have sold a total of 10,319,819 shares in the last 24 months. This volume of shares sold represents approximately $119.02M in transactions.



This page (NYSE:NAD) was last updated on 5/5/2026 by MarketBeat.com Staff.
From Our Partners